Weather History for Lambertville, MI

Change the Weather History Date:

Tuesday, September 10, 2013

  Actual Average (KTOL) Record (KTOL)
Temperature  
Mean Temperature 85 °F 66 °F  
Max Temperature 95 °F 78 °F 97 °F (2013)
Min Temperature 75 °F 55 °F 38 °F (1969)
Degree Days  
Heating Degree Days 0 2  
Month to date heating degree days 14  
Since 1 July heating degree days 28  
Cooling Degree Days 20 4  
Month to date cooling degree days 44  
Year to date cooling degree days 746  
Growing Degree Days 35 (Base 50)    
Moisture  
Dew Point 67 °F    
Average Humidity 60    
Maximum Humidity 83    
Minimum Humidity 32    
Precipitation  
Precipitation 0.00 in 0.09 in 1.58 in (2000)
Month to date precipitation 0.95  
Year to date precipitation 24.27  
Snow  
Snow 0.00 in 0.00 in - ()
Month to date snowfall 0.0  
Since 1 July snowfall 0.0  
Since 1 September snowfall 0.0  
Snow Depth -    
Sea Level Pressure  
Sea Level Pressure 30.00 in    
Wind  
Wind Speed 7 mph (SW)    
Max Wind Speed 12 mph    
Max Gust Speed 17 mph    
Visibility 9 miles    
Events      
T = Trace of Precipitation, MM = Missing Value Source: NWS Daily Summary

Daily Weather History Graph

Daily Weather History Graph

Search for Another Location

Airport:

Trip Planner

Search our weather history database for the weather conditions in past years. The results will help you decide how hot, cold, wet, or windy it might be!

Date:

Astronomy

Sep. 10, 2013 Rise Set
Actual Time 7:09 AM EDT 7:52 PM EDT
Civil Twilight 6:41 AM EDT 8:20 PM EDT
Nautical Twilight 6:08 AM EDT 8:53 PM EDT
Astronomical Twilight 5:34 AM EDT 9:27 PM EDT
Moon 12:39 PM EDT (9/10) 10:49 PM EDT (9/10)
Length of Visible Light 13h 38m
Length of Day
12h 42m
Waxing Crescent, 28% of the Moon is Illuminated
Sep 10
Waxing Crescent
Sep 12
First Quarter
Sep 19
Full
Sep 26
Last Quarter
Oct 4
New

Hourly Weather History & Observations

Time (EDT) Temp. Heat Index Dew Point Humidity Pressure Visibility Wind Dir Wind Speed Gust Speed Precip Events Conditions
12:15 AM 77.0 °F - 68.0 °F 74% 29.94 in 10.0 mi SSW 5.8 mph - N/A   Clear
12:35 AM 77.0 °F - 68.0 °F 74% 29.94 in 10.0 mi SSW 5.8 mph - N/A   Clear
12:55 AM 77.0 °F - 68.0 °F 74% 29.94 in 10.0 mi SSW 6.9 mph - N/A   Clear
1:15 AM 77.0 °F - 68.0 °F 74% 29.94 in 10.0 mi SSW 5.8 mph - N/A   Clear
1:35 AM 77.0 °F - 68.0 °F 74% 29.94 in 10.0 mi SSW 6.9 mph - N/A   Clear
1:55 AM 78.8 °F - 68.0 °F 69% 29.94 in 10.0 mi SW 8.1 mph - N/A   Clear
2:15 AM 78.8 °F - 68.0 °F 69% 29.94 in 10.0 mi SW 9.2 mph - N/A   Clear
2:35 AM 78.8 °F - 68.0 °F 69% 29.94 in 10.0 mi SW 8.1 mph - N/A   Clear
2:55 AM 78.8 °F - 68.0 °F 69% 29.94 in 10.0 mi SW 9.2 mph - N/A   Clear
3:15 AM 78.8 °F - 69.8 °F 74% 29.95 in 10.0 mi SW 10.4 mph 16.1 mph N/A   Clear
3:35 AM 78.8 °F - 69.8 °F 74% 29.95 in 10.0 mi SSW 8.1 mph - N/A   Clear
3:55 AM 78.8 °F - 69.8 °F 74% 29.95 in 10.0 mi SW 6.9 mph - N/A   Clear
4:15 AM 78.8 °F - 69.8 °F 74% 29.96 in 10.0 mi SW 6.9 mph - N/A   Clear
4:35 AM 78.8 °F - 69.8 °F 74% 29.96 in 10.0 mi SW 4.6 mph - N/A   Clear
4:55 AM 77.0 °F - 69.8 °F 78% 29.97 in 10.0 mi SW 8.1 mph - N/A   Clear
5:15 AM 77.0 °F - 69.8 °F 78% 29.97 in 10.0 mi SW 5.8 mph - N/A   Clear
5:35 AM 77.0 °F - 69.8 °F 78% 29.98 in 7.0 mi SW 3.5 mph - N/A   Clear
5:55 AM 77.0 °F - 69.8 °F 78% 29.98 in 7.0 mi SW 6.9 mph - N/A   Clear
6:15 AM 77.0 °F - 69.8 °F 78% 29.99 in 7.0 mi SW 5.8 mph - N/A   Clear
6:35 AM 77.0 °F - 69.8 °F 78% 29.99 in 7.0 mi SW 5.8 mph - N/A   Clear
6:55 AM 77.0 °F - 69.8 °F 78% 29.99 in 7.0 mi SW 4.6 mph - N/A   Clear
7:15 AM 77.0 °F - 69.8 °F 78% 30.00 in 7.0 mi SSW 8.1 mph - N/A   Clear
7:35 AM 75.2 °F - 69.8 °F 83% 30.00 in 5.0 mi SW 5.8 mph - N/A   Haze
7:55 AM 77.0 °F - 69.8 °F 78% 30.00 in 7.0 mi SW 8.1 mph - N/A   Clear
8:15 AM 77.0 °F - 69.8 °F 78% 30.01 in 7.0 mi WSW 8.1 mph - N/A   Clear
8:35 AM 78.8 °F - 69.8 °F 74% 30.01 in 7.0 mi WSW 11.5 mph - N/A   Clear
8:55 AM 78.8 °F - 71.6 °F 78% 30.01 in 7.0 mi SW 9.2 mph - N/A   Clear
9:15 AM 80.6 °F 84.6 °F 71.6 °F 74% 30.01 in 7.0 mi WSW 9.2 mph - N/A   Clear
9:35 AM 80.6 °F 84.6 °F 71.6 °F 74% 30.02 in 7.0 mi WSW 9.2 mph - N/A   Clear
9:55 AM 80.6 °F 84.6 °F 71.6 °F 74% 30.03 in 10.0 mi WSW 9.2 mph - N/A   Clear
10:15 AM 82.4 °F 87.2 °F 71.6 °F 70% 30.03 in 7.0 mi WSW 9.2 mph 16.1 mph N/A   Clear
10:35 AM 82.4 °F 87.2 °F 71.6 °F 70% 30.03 in 7.0 mi WSW 6.9 mph - N/A   Clear
10:55 AM 84.2 °F 89.6 °F 71.6 °F 66% 30.03 in 10.0 mi WSW 10.4 mph - N/A   Clear
11:15 AM 86.0 °F 91.8 °F 71.6 °F 62% 30.03 in 10.0 mi WSW 9.2 mph - N/A   Clear
11:35 AM 87.8 °F 93.8 °F 71.6 °F 58% 30.03 in 10.0 mi SW 5.8 mph - N/A   Clear
11:55 AM 87.8 °F 93.8 °F 71.6 °F 58% 30.03 in 10.0 mi WSW 9.2 mph - N/A   Clear
12:15 PM 87.8 °F 92.6 °F 69.8 °F 55% 30.03 in 10.0 mi WSW 11.5 mph - N/A   Clear
12:35 PM 89.6 °F 96.2 °F 71.6 °F 55% 30.03 in 10.0 mi SW 4.6 mph - N/A   Clear
12:55 PM 89.6 °F 94.7 °F 69.8 °F 52% 30.03 in 10.0 mi WSW 6.9 mph - N/A   Clear
1:15 PM 91.4 °F 96.8 °F 69.8 °F 49% 30.03 in 10.0 mi WSW 8.1 mph - N/A   Clear
1:35 PM 91.4 °F 96.8 °F 69.8 °F 49% 30.03 in 10.0 mi SW 5.8 mph - N/A   Clear
1:55 PM 93.2 °F 97.7 °F 68.0 °F 44% 30.03 in 10.0 mi West 6.9 mph - N/A   Clear
2:15 PM 93.2 °F 97.7 °F 68.0 °F 44% 30.02 in 10.0 mi WSW 8.1 mph - N/A   Clear
2:35 PM 93.2 °F 96.2 °F 66.2 °F 41% 30.02 in 10.0 mi WSW 8.1 mph - N/A   Clear
2:55 PM 95.0 °F 97.0 °F 64.4 °F 36% 30.02 in 10.0 mi WSW 8.1 mph - N/A   Clear
3:15 PM 95.0 °F 97.0 °F 64.4 °F 36% 30.01 in 10.0 mi WSW 9.2 mph - N/A   Clear
3:35 PM 95.0 °F 97.0 °F 64.4 °F 36% 30.01 in 10.0 mi WSW 9.2 mph - N/A   Clear
3:55 PM 95.0 °F 96.0 °F 62.6 °F 34% 30.01 in 10.0 mi WSW 8.1 mph 17.3 mph N/A   Clear
4:15 PM 95.0 °F 96.0 °F 62.6 °F 34% 30.00 in 10.0 mi West 9.2 mph - N/A   Clear
4:35 PM 95.0 °F 96.0 °F 62.6 °F 34% 30.00 in 10.0 mi WSW 8.1 mph - N/A   Clear
4:55 PM 95.0 °F 96.0 °F 62.6 °F 34% 30.00 in 10.0 mi WSW 8.1 mph - N/A   Clear
5:15 PM 95.0 °F 96.0 °F 62.6 °F 34% 30.00 in 10.0 mi West 3.5 mph - N/A   Clear
5:35 PM 95.0 °F 95.2 °F 60.8 °F 32% 30.00 in 10.0 mi WSW 9.2 mph - N/A   Scattered Clouds
5:55 PM 93.2 °F 93.3 °F 60.8 °F 34% 30.00 in 10.0 mi WSW 5.8 mph - N/A   Scattered Clouds
6:15 PM 93.2 °F 93.3 °F 60.8 °F 34% 30.00 in 10.0 mi WSW 5.8 mph - N/A   Clear
6:35 PM 91.4 °F 91.4 °F 60.8 °F 36% 30.00 in 10.0 mi WSW 4.6 mph - N/A   Clear
6:55 PM 89.6 °F 90.1 °F 62.6 °F 40% 30.01 in 10.0 mi SW 3.5 mph - N/A   Clear
7:15 PM 87.8 °F 88.5 °F 62.6 °F 43% 30.01 in 10.0 mi SW 4.6 mph - N/A   Clear
7:35 PM 82.4 °F 85.4 °F 68.0 °F 62% 30.02 in 10.0 mi Calm Calm - N/A   Clear
7:55 PM 82.4 °F 84.6 °F 66.2 °F 58% 30.02 in 10.0 mi SSW 4.6 mph - N/A   Clear
8:15 PM 82.4 °F 83.9 °F 64.4 °F 54% 30.02 in 10.0 mi SSW 3.5 mph - N/A   Clear
8:35 PM 82.4 °F 84.6 °F 66.2 °F 58% 30.03 in 10.0 mi SSW 3.5 mph - N/A   Clear
8:55 PM 82.4 °F 83.9 °F 64.4 °F 54% 30.04 in 10.0 mi SW 3.5 mph - N/A   Clear
9:15 PM 82.4 °F 83.4 °F 62.6 °F 51% 30.04 in 10.0 mi SW 3.5 mph - N/A   Clear
9:35 PM 82.4 °F 83.9 °F 64.4 °F 54% 30.05 in 10.0 mi SW 3.5 mph - N/A   Clear
9:55 PM 80.6 °F 82.3 °F 64.4 °F 58% 30.05 in 10.0 mi SW 4.6 mph - N/A   Clear
10:15 PM 80.6 °F 81.8 °F 62.6 °F 54% 30.05 in 10.0 mi SW 3.5 mph - N/A   Clear
10:35 PM 82.4 °F 83.4 °F 62.6 °F 51% 30.05 in 10.0 mi SSW 3.5 mph - N/A   Clear
10:55 PM 80.6 °F 81.8 °F 62.6 °F 54% 30.05 in 10.0 mi South 4.6 mph - N/A   Clear
11:15 PM 80.6 °F 81.8 °F 62.6 °F 54% 30.05 in 10.0 mi SSW 4.6 mph - N/A   Clear
11:35 PM 80.6 °F 81.8 °F 62.6 °F 54% 30.06 in 10.0 mi South 5.8 mph - N/A   Clear
11:55 PM 80.6 °F 81.8 °F 62.6 °F 54% 30.06 in 10.0 mi SSW 8.1 mph - N/A   Clear